Cut Bank, MT

6:45 AM MST on November 15, 2019 (GMT -0700)
Cut Bank Municipal

Weather History for KCTB - September, 2019

Change the Weather History Date:

Monday, September 9, 2019

  Actual Average Record
Temperature  
Mean Temperature 50 °F 56 °F  
Max Temperature 53 °F 70 °F 90 °F (1981)
Min Temperature 47 °F 42 °F 26 °F (1992)
Degree Days  
Heating Degree Days 15 9  
Month to date heating degree days 49 72  
Since 1 July heating degree days 222 266  
Cooling Degree Days 0 0  
Month to date cooling degree days 1 6  
Year to date cooling degree days 105 159  
Moisture  
Dew Point 46 °F    
Average Humidity 88    
Maximum Humidity 93    
Minimum Humidity 83    
Precipitation  
Precipitation 0.17 in 0.05 in 0.96 in (1986)
Month to date precipitation 0.47 0.41  
Year to date precipitation 9.30 9.07  
Snow  
Snow - - - ()
Snow Depth 0.00 in    
Sea Level Pressure  
Sea Level Pressure 29.86 in    
Wind  
Wind Speed 7 mph ()    
Max Wind Speed 20 mph    
Max Gust Speed 24 mph    
Visibility 8.9 miles    
Events Rain    
T = Trace of Precipitation, MM = Missing Value Source: Averaged Metar Reports

Daily Weather History Graph

Daily Weather History Graph

Search for Another Location

Airport or City:

Astronomy

Sep. 09, 2019 Rise Set
Actual Time 6:57 AM MDT 7:55 PM MDT
Civil Twilight 6:25 AM MDT 8:26 PM MDT
Nautical Twilight 5:47 AM MDT 9:05 PM MDT
Astronomical Twilight 5:06 AM MDT 9:45 PM MDT
Moon 6:15 PM MDT (9/9) 2:08 AM MDT (9/9)
Length of Visible Light 14h 01m
Length of Day
12h 57m
Waxing Gibbous, 83% of the Moon is Illuminated
Sep 9
Waxing Gibbous
Sep 13
Full
Sep 21
Last Quarter
Sep 28
New
Oct 5
First Quarter

Hourly Weather History & Observations

Time (MDT) Temp. Dew Point Humidity Pressure Visibility Wind Dir Wind Speed Gust Speed Precip Events Conditions
12:35 AM 50.0 °F 46.0 °F 86% 29.82 in 10.0 mi ENE 6.9 mph - N/A   Mostly Cloudy
12:56 AM 50.0 °F 46.0 °F 86% 29.81 in 10.0 mi ESE 4.6 mph - N/A   Overcast
1:14 AM 48.9 °F 46.0 °F 90% 29.82 in 10.0 mi ESE 5.8 mph - N/A   Overcast
1:56 AM 50.0 °F 46.0 °F 86% 29.81 in 10.0 mi ESE 3.5 mph - N/A   Overcast
2:56 AM 50.0 °F 46.0 °F 86% 29.79 in 10.0 mi North 3.5 mph - N/A   Overcast
3:56 AM 48.9 °F 46.0 °F 90% 29.78 in 10.0 mi Calm Calm - N/A   Overcast
4:47 AM 48.9 °F 46.0 °F 90% 29.81 in 10.0 mi WNW 4.6 mph - N/A   Overcast
4:56 AM 48.9 °F 46.0 °F 90% 29.77 in 10.0 mi WNW 5.8 mph - N/A   Overcast
5:20 AM 50.0 °F 46.0 °F 86% 29.82 in 10.0 mi WNW 5.8 mph - N/A   Overcast
5:56 AM 48.9 °F 45.0 °F 86% 29.78 in 10.0 mi NNW 8.1 mph - N/A   Overcast
6:35 AM 48.9 °F 46.0 °F 90% 29.83 in 10.0 mi North 10.4 mph - N/A   Overcast
6:56 AM 48.9 °F 46.0 °F 90% 29.80 in 8.0 mi North 9.2 mph - N/A   Overcast
7:56 AM 48.9 °F 46.0 °F 90% 29.82 in 10.0 mi NNW 8.1 mph - N/A   Overcast
8:27 AM 48.9 °F 46.0 °F 90% 29.84 in 10.0 mi North 9.2 mph - N/A   Overcast
8:56 AM 48.9 °F 46.0 °F 90% 29.83 in 10.0 mi North 11.5 mph - N/A   Overcast
9:39 AM 50.0 °F 46.0 °F 86% 29.86 in 9.0 mi NNW 12.7 mph - 0.00 in Rain Light Rain
9:49 AM 50.0 °F 46.0 °F 86% 29.86 in 7.0 mi NNW 12.7 mph - 0.01 in Rain Light Rain
10:11 AM 48.9 °F 46.0 °F 90% 29.86 in 8.0 mi NNW 13.8 mph - 0.01 in Rain Light Rain
10:20 AM 48.9 °F 46.9 °F 93% 29.87 in 8.0 mi NNW 15.0 mph - 0.01 in Rain Light Rain
10:44 AM 48.9 °F 46.9 °F 93% 29.87 in 5.0 mi NNW 13.8 mph - 0.02 in Rain Light Rain
10:56 AM 50.0 °F 46.9 °F 89% 29.86 in 6.0 mi NNW 13.8 mph - 0.03 in Rain Light Rain
11:22 AM 50.0 °F 46.9 °F 89% 29.87 in 7.0 mi NNW 12.7 mph - 0.02 in Rain Light Rain
11:56 AM 50.0 °F 46.9 °F 89% 29.87 in 7.0 mi NNW 15.0 mph - 0.03 in Rain Light Rain
12:56 PM 51.1 °F 48.0 °F 89% 29.87 in 6.0 mi NNW 10.4 mph - 0.02 in Rain Light Rain
1:56 PM 51.1 °F 48.0 °F 89% 29.88 in 5.0 mi NW 12.7 mph - 0.03 in Rain Light Rain
2:56 PM 52.0 °F 48.0 °F 86% 29.88 in 6.0 mi NNW 11.5 mph - 0.03 in Rain Light Rain
3:56 PM 52.0 °F 48.0 °F 86% 29.88 in 8.0 mi NW 12.7 mph - 0.01 in   Overcast
4:56 PM 53.1 °F 48.9 °F 86% 29.88 in 10.0 mi NW 13.8 mph - 0.00 in   Overcast
5:56 PM 51.1 °F 46.0 °F 83% 29.90 in 10.0 mi NW 11.5 mph - N/A   Mostly Cloudy
6:56 PM 51.1 °F 46.9 °F 86% 29.91 in 10.0 mi NW 6.9 mph - N/A   Partly Cloudy
7:56 PM 50.0 °F 46.9 °F 89% 29.92 in 10.0 mi WNW 5.8 mph - N/A   Overcast
8:56 PM 48.9 °F 45.0 °F 86% 29.94 in 10.0 mi NW 8.1 mph - N/A   Overcast
9:56 PM 48.9 °F 46.0 °F 90% 29.94 in 10.0 mi NW 10.4 mph - N/A   Overcast
10:56 PM 48.9 °F 46.0 °F 90% 29.94 in 10.0 mi NW 8.1 mph - N/A   Overcast
11:56 PM 48.0 °F 45.0 °F 89% 29.95 in 10.0 mi NW 11.5 mph - N/A   Overcast